KB9HUO Weather Reports


Display with metric or nautical units.
time (UTC)temp
F
wind
direction
speed
MPH
gust
MPH
rain 1hr
in
rain 24hr
in
rain mn
in
humidity
%
barometer
mb
20260504023812 59 224 4.0 6.0 0.00 0.00 0.00 54 1013.6
20260504023309 59 189 2.0 3.0 0.00 0.00 0.00 55 1013.7
20260504022805 58 225 3.0 3.0 0.00 0.00 0.00 55 1013.7
20260504022304 58 209 2.0 2.0 0.00 0.00 0.00 55 1013.6
20260504021758 58 220 3.0 3.0 0.00 0.00 0.00 56 1013.6
20260504021256 58 203 2.0 3.0 0.00 0.00 0.00 56 1013.6
20260504020753 58 195 3.0 4.0 0.00 0.00 0.00 55 1013.5
20260504020249 58 199 4.0 4.0 0.00 0.00 0.00 55 1013.7
20260504015745 58 211 3.0 3.0 0.00 0.00 0.00 56 1013.6
20260504015242 58 203 3.0 4.0 0.00 0.00 0.00 56 1013.7
20260504014737 58 200 3.0 3.0 0.00 0.00 0.00 55 1013.6
20260504014234 58 204 1.0 2.0 0.00 0.00 0.00 56 1013.8
20260504013732 58 217 1.0 2.0 0.00 0.00 0.00 57 1013.6
20260504013230 58 219 1.0 1.0 0.00 0.00 0.00 58 1013.8
20260504012726 58 217 1.0 1.0 0.00 0.00 0.00 57 1014.0
20260504012224 58 218 0.0 0.0 0.00 0.00 0.00 56 1014.0
20260504011720 58 218 0.0 1.0 0.00 0.00 0.00 56 1013.9
20260504011217 59 219 0.0 1.0 0.00 0.00 0.00 55 1013.8
20260504010713 59 219 1.0 1.0 0.00 0.00 0.00 54 1013.8
20260504010209 59 211 1.0 1.0 0.00 0.00 0.00 54 1013.8
20260504005706 59 209 2.0 2.0 0.00 0.00 0.00 53 1013.9
20260504005203 59 228 1.0 1.0 0.00 0.00 0.00 52 1013.9
20260504004701 59 234 1.0 1.0 0.00 0.00 0.00 53 1013.9
20260504004157 59 235 0.0 0.0 0.00 0.00 0.00 53 1014.0
20260504003654 60 235 0.0 0.0 0.00 0.00 0.00 53 1014.1
20260504003151 60 236 0.0 0.0 0.00 0.00 0.00 52 1014.1
20260504002647 61 236 0.0 0.0 0.00 0.00 0.00 50 1014.2
20260504002145 61 236 0.0 0.0 0.00 0.00 0.00 49 1013.9
20260504001643 62 236 0.0 1.0 0.00 0.00 0.00 48 1013.8
20260504001138 62 229 2.0 3.0 0.00 0.00 0.00 48 1013.6
20260504000636 62 227 3.0 3.0 0.00 0.00 0.00 48 1013.9
20260504000133 62 232 2.0 3.0 0.00 0.00 0.00 47 1013.8
20260503235631 63 244 2.0 2.0 0.00 0.00 0.00 46 1013.7
20260503235128 63 243 2.0 2.0 0.00 0.00 0.00 46 1013.5
20260503234626 63 249 2.0 3.0 0.00 0.00 0.00 46 1013.4
20260503234124 63 221 4.0 6.0 0.00 0.00 0.00 46 1013.3
20260503233621 63 239 2.0 3.0 0.00 0.00 0.00 46 1013.4
20260503233116 63 232 3.0 3.0 0.00 0.00 0.00 46 1013.5
20260503232613 63 238 4.0 6.0 0.00 0.00 0.00 46 1013.5
20260503232110 63 214 6.0 7.0 0.00 0.00 0.00 45 1013.3
20260503231609 63 224 4.0 4.0 0.00 0.00 0.00 46 1013.3
20260503231105 63 234 4.0 4.0 0.00 0.00 0.00 45 1013.6
20260503230601 64 213 4.0 6.0 0.00 0.00 0.00 46 1013.6
20260503230059 64 218 3.0 3.0 0.00 0.00 0.00 45 1013.5
20260503225555 64 229 4.0 4.0 0.00 0.00 0.00 45 1013.5
20260503225050 64 223 3.0 4.0 0.00 0.00 0.00 45 1013.6
20260503224548 64 219 10.0 11.0 0.00 0.00 0.00 45 1013.6
20260503224046 64 243 3.0 4.0 0.00 0.00 0.00 45 1013.7
20260503223544 64 226 7.0 10.0 0.00 0.00 0.00 44 1013.7
20260503223039 64 252 4.0 6.0 0.00 0.00 0.00 44 1013.7
20260503222537 64 228 3.0 4.0 0.00 0.00 0.00 45 1013.8
20260503222035 64 254 4.0 7.0 0.00 0.00 0.00 44 1014.0
20260503221533 64 244 3.0 3.0 0.00 0.00 0.00 43 1014.0
20260503221030 64 237 4.0 4.0 0.00 0.00 0.00 43 1014.1
20260503220526 64 236 2.0 2.0 0.00 0.00 0.00 42 1014.2
20260503220023 65 226 5.0 8.0 0.00 0.00 0.00 42 1014.3
20260503215520 65 269 3.0 3.0 0.00 0.00 0.00 43 1014.5
20260503215017 64 241 2.0 2.0 0.00 0.00 0.00 45 1014.8
20260503214516 64 217 4.0 7.0 0.00 0.00 0.00 46 1014.9
20260503214012 64 244 4.0 4.0 0.00 0.00 0.00 44 1014.6
20260503213511 64 233 5.0 7.0 0.00 0.00 0.00 44 1015.0
20260503213007 64 223 4.0 6.0 0.00 0.00 0.00 44 1015.0
20260503212504 64 280 4.0 4.0 0.00 0.00 0.00 44 1015.1
20260503212002 64 232 2.0 2.0 0.00 0.00 0.00 46 1015.0
20260503211459 63 241 2.0 2.0 0.00 0.00 0.00 44 1015.3
20260503210954 63 259 4.0 4.0 0.00 0.00 0.00 42 1015.7
20260503210451 64 214 10.0 11.0 0.00 0.00 0.00 42 1015.9
20260503205951 63 233 2.0 3.0 0.00 0.00 0.00 43 1016.0
20260503205449 64 244 2.0 2.0 0.00 0.00 0.00 42 1016.1
20260503204945 64 252 2.0 3.0 0.00 0.00 0.00 43 1016.1
20260503204442 64 237 4.0 6.0 0.00 0.00 0.00 42 1016.1
20260503203934 64 252 2.0 2.0 0.00 0.00 0.00 41 1016.1
20260503203431 64 252 5.0 7.0 0.00 0.00 0.00 42 1016.0
20260503202927 64 254 3.0 3.0 0.00 0.00 0.00 39 1015.9
20260503202426 64 238 2.0 3.0 0.00 0.00 0.00 43 1015.9
20260503201924 64 248 3.0 3.0 0.00 0.00 0.00 41 1015.9
20260503201421 64 216 5.0 6.0 0.00 0.00 0.00 44 1016.1
20260503200919 64 248 3.0 3.0 0.00 0.00 0.00 40 1016.3
20260503200415 64 233 3.0 4.0 0.00 0.00 0.00 41 1016.4
20260503195911 63 251 2.0 2.0 0.00 0.00 0.00 45 1016.5
20260503195409 63 239 4.0 7.0 0.00 0.00 0.00 42 1016.7
20260503194905 63 246 2.0 2.0 0.00 0.00 0.00 43 1016.8
20260503194402 63 225 8.0 10.0 0.00 0.00 0.00 40 1016.8
20260503193858 63 251 5.0 7.0 0.00 0.00 0.00 40 1016.8
20260503193353 63 248 2.0 3.0 0.00 0.00 0.00 42 1017.0
20260503192849 61 230 4.0 6.0 0.00 0.00 0.00 42 1017.4
20260503192345 62 219 5.0 7.0 0.00 0.00 0.00 42 1017.3
20260503191842 62 242 6.0 7.0 0.00 0.00 0.00 41 1017.5
20260503191338 63 232 6.0 8.0 0.00 0.00 0.00 39 1017.5
20260503190835 63 223 3.0 4.0 0.00 0.00 0.00 38 1017.6
20260503190333 63 236 4.0 6.0 0.00 0.00 0.00 42 1017.5
20260503185830 63 257 1.0 2.0 0.00 0.00 0.00 39 1017.8
20260503185325 63 228 4.0 6.0 0.00 0.00 0.00 40 1018.1
20260503184820 63 232 3.0 3.0 0.00 0.00 0.00 41 1018.2
20260503184316 63 260 5.0 6.0 0.00 0.00 0.00 42 1018.0
20260503183812 63 248 3.0 3.0 0.00 0.00 0.00 39 1018.2
20260503183309 63 244 2.0 3.0 0.00 0.00 0.00 40 1018.3
20260503182807 63 243 1.0 1.0 0.00 0.00 0.00 42 1018.4
20260503182306 63 254 3.0 4.0 0.00 0.00 0.00 42 1018.6
20260503181802 62 235 3.0 3.0 0.00 0.00 0.00 41 1018.4
20260503181259 62 236 4.0 4.0 0.00 0.00 0.00 41 1018.6
20260503180756 62 234 3.0 4.0 0.00 0.00 0.00 40 1018.8
20260503180254 62 249 2.0 2.0 0.00 0.00 0.00 40 1018.8
20260503175750 62 228 4.0 7.0 0.00 0.00 0.00 40 1019.1
20260503175248 62 220 6.0 8.0 0.00 0.00 0.00 40 1019.0
20260503174744 62 231 3.0 3.0 0.00 0.00 0.00 40 1019.2
20260503174242 61 231 4.0 6.0 0.00 0.00 0.00 41 1019.3
20260503173742 62 227 4.0 6.0 0.00 0.00 0.00 40 1019.4
20260503173238 62 239 2.0 3.0 0.00 0.00 0.00 39 1019.6
20260503172735 62 221 2.0 3.0 0.00 0.00 0.00 43 1019.7
20260503172232 61 247 1.0 2.0 0.00 0.00 0.00 40 1019.4
20260503171729 61 239 4.0 4.0 0.00 0.00 0.00 43 1019.5
20260503171226 61 244 3.0 3.0 0.00 0.00 0.00 43 1019.4
20260503170723 61 243 2.0 2.0 0.00 0.00 0.00 39 1019.5
20260503170220 61 229 4.0 4.0 0.00 0.00 0.00 40 1019.7
20260503160142 59 218 2.0 3.0 0.00 0.00 0.00 41 1020.4
20260503150612 57 224 4.0 6.0 0.00 0.00 0.00 41 1021.1
20260503150108 57 219 2.0 3.0 0.00 0.00 0.00 43 1021.0
20260503130955 48 236 3.0 3.0 0.00 0.00 0.00 62 1021.3
20260503130453 47 228 1.0 2.0 0.00 0.00 0.00 62 1021.4
20260503110337 32 295 0.0 0.0 0.00 0.00 0.00 97 1020.7
20260503090223 32 295 0.0 0.0 0.00 0.00 0.00 96 1020.5
20260503081151 33 295 0.0 0.0 0.00 0.00 0.00 95 1020.3
20260503080646 33 295 0.0 0.0 0.00 0.00 0.00 95 1020.4
20260503080144 33 295 0.0 0.0 0.00 0.00 0.00 95 1020.3
20260503072621 33 295 0.0 0.0 0.00 0.00 0.00 95 1020.2
20260503072118 33 295 0.0 0.0 0.00 0.00 0.00 95 1020.1
20260503071614 34 295 0.0 0.0 0.00 0.00 0.00 95 1020.2
20260503071111 34 295 0.0 0.0 0.00 0.00 0.00 95 1020.3
20260503070608 34 295 0.0 0.0 0.00 0.00 0.00 95 1020.5
20260503070106 34 295 0.0 0.0 0.00 0.00 0.00 95 1020.3
20260503055031 35 295 0.0 0.0 0.00 0.00 0.00 94 1020.6
20260503054528 35 295 0.0 0.0 0.00 0.00 0.00 93 1020.5
20260503054025 35 295 0.0 0.0 0.00 0.00 0.00 93 1020.5
20260503053523 35 295 0.0 0.0 0.00 0.00 0.00 93 1020.6
20260503053020 35 295 0.0 0.0 0.00 0.00 0.00 93 1020.6
20260503052517 35 295 0.0 0.0 0.00 0.00 0.00 93 1020.7
20260503052013 35 295 0.0 0.0 0.00 0.00 0.00 93 1020.8
20260503051509 36 295 0.0 0.0 0.00 0.00 0.00 93 1020.7
20260503051007 36 295 0.0 0.0 0.00 0.00 0.00 92 1020.7
20260503050502 36 295 0.0 0.0 0.00 0.00 0.00 92 1020.7
20260503050000 36 295 0.0 0.0 0.00 0.00 0.00 92 1020.7
20260503045457 36 295 0.0 0.0 0.00 0.00 0.00 92 1020.7
20260503044954 36 295 0.0 0.0 0.00 0.00 0.00 92 1020.7
20260503044450 37 295 0.0 0.0 0.00 0.00 0.00 91 1020.7
20260503043948 37 295 0.0 0.0 0.00 0.00 0.00 91 1020.7
20260503043444 37 295 0.0 0.0 0.00 0.00 0.00 91 1020.5
20260503042941 37 295 0.0 0.0 0.00 0.00 0.00 90 1020.6
20260503042437 37 295 0.0 0.0 0.00 0.00 0.00 90 1020.4
20260503041934 37 295 0.0 0.0 0.00 0.00 0.00 90 1020.5
20260503041431 37 295 0.0 0.0 0.00 0.00 0.00 90 1020.5
20260503040928 37 295 0.0 0.0 0.00 0.00 0.00 89 1020.4
20260503040426 37 295 0.0 0.0 0.00 0.00 0.00 89 1020.3
20260503035923 37 295 0.0 0.0 0.00 0.00 0.00 88 1020.5
20260503035420 38 295 0.0 0.0 0.00 0.00 0.00 88 1020.4
20260503034917 38 295 0.0 0.0 0.00 0.00 0.00 88 1020.3
20260503034415 38 295 0.0 0.0 0.00 0.00 0.00 87 1020.5
20260503033911 38 295 0.0 0.0 0.00 0.00 0.00 86 1020.6
20260503033409 39 295 0.0 0.0 0.00 0.00 0.00 86 1020.6
20260503032907 39 295 0.0 0.0 0.00 0.00 0.00 86 1020.5
20260503032405 39 295 0.0 0.0 0.00 0.00 0.00 85 1020.3
20260503031903 39 295 0.0 0.0 0.00 0.00 0.00 84 1020.3
20260503031400 40 295 0.0 0.0 0.00 0.00 0.00 85 1020.4
20260503030857 40 295 0.0 0.0 0.00 0.00 0.00 84 1020.5
20260503030354 40 295 0.0 0.0 0.00 0.00 0.00 83 1020.5
20260503025850 41 295 0.0 0.0 0.00 0.00 0.00 81 1020.6
20260503025347 41 295 0.0 0.0 0.00 0.00 0.00 79 1020.6
20260503024844 41 295 0.0 0.0 0.00 0.00 0.00 78 1020.6
20260503024341 41 295 0.0 0.0 0.00 0.00 0.00 77 1020.4